Location: Cella
(44.7333°N, 10.5667°E)
Time: 10:15:35
(UTC+00:00)

Cosmos 1777 Rocket - Pass Details

Date: 27 June 2021
Orbit: 757 x 776 km, 74.0° (Epoch: 28 July)

Event Time Altitude Azimuth Distance (km) Brightness Sun altitude
Rises 22:16:59 0° 329° (NNW) 3,264 8.6 -20.4°
Reaches altitude 10° 22:19:38 10° 318° (NW) 2,333 7.4 -20.6°
Maximum altitude 22:24:06 28° 260° (W) 1,421 5.4 -20.8°
Enters shadow 22:26:05 22° 226° (SW) 1,640 5.4 -20.8°
